TimeCST,TemperatureF,Dew PointF,Humidity,Sea Level PressureIn,VisibilityMPH,Wind Direction,Wind SpeedMPH,Gust SpeedMPH,PrecipitationIn,Events,Conditions,WindDirDegrees,DateUTC
12:14 AM,-11.2,-16.6,77,30.38,10.0,NW,5.8,-,N/A,,Clear,310,2014-01-28 06:14:00
12:34 AM,-11.2,-16.6,77,30.38,10.0,Calm,Calm,-,N/A,,Clear,0,2014-01-28 06:34:00
12:54 AM,-11.2,-16.6,77,30.38,10.0,NW,3.5,-,N/A,,Clear,310,2014-01-28 06:54:00
1:14 AM,-11.2,-16.6,77,30.37,10.0,WNW,5.8,-,N/A,,Clear,300,2014-01-28 07:14:00
1:34 AM,-11.2,-16.6,77,30.37,10.0,WNW,4.6,-,N/A,,Clear,300,2014-01-28 07:34:00
1:54 AM,-11.2,-16.6,77,30.37,10.0,WNW,4.6,-,N/A,,Clear,300,2014-01-28 07:54:00
2:15 AM,-13.0,-16.6,84,30.36,10.0,NW,4.6,-,N/A,,Clear,320,2014-01-28 08:15:00
2:34 AM,-13.0,-16.6,84,30.36,10.0,NW,3.5,-,N/A,,Clear,310,2014-01-28 08:34:00
2:54 AM,-13.0,-16.6,84,30.36,10.0,NW,5.8,-,N/A,,Clear,310,2014-01-28 08:54:00
3:14 AM,-13.0,-16.6,84,30.36,10.0,NW,4.6,-,N/A,,Clear,310,2014-01-28 09:14:00
3:34 AM,-13.0,-16.6,84,30.36,10.0,NW,3.5,-,N/A,,Clear,320,2014-01-28 09:34:00
3:54 AM,-13.0,-16.6,84,30.36,10.0,NW,5.8,-,N/A,,Scattered Clouds,320,2014-01-28 09:54:00
4:14 AM,-11.2,-16.6,77,30.36,10.0,NW,5.8,-,N/A,,Scattered Clouds,310,2014-01-28 10:14:00
4:34 AM,-11.2,-16.6,77,30.36,10.0,WNW,6.9,-,N/A,,Scattered Clouds,300,2014-01-28 10:34:00
4:54 AM,-11.2,-16.6,77,30.36,10.0,WNW,4.6,-,N/A,,Clear,290,2014-01-28 10:54:00
5:13 AM,-11.2,-16.6,77,30.36,10.0,WNW,6.9,-,N/A,,Clear,300,2014-01-28 11:13:00
5:34 AM,-11.2,-16.6,77,30.36,10.0,NW,8.1,-,N/A,,Scattered Clouds,310,2014-01-28 11:34:00
5:54 AM,-13.0,-16.6,84,30.36,10.0,NW,5.8,-,N/A,,Clear,310,2014-01-28 11:54:00
6:14 AM,-13.0,-16.6,84,30.36,10.0,WNW,6.9,-,N/A,,Clear,300,2014-01-28 12:14:00
6:34 AM,-13.0,-18.4,77,30.35,10.0,Calm,Calm,-,N/A,,Clear,0,2014-01-28 12:34:00
6:54 AM,-14.8,-18.4,84,30.35,10.0,NW,5.8,-,N/A,,Clear,310,2014-01-28 12:54:00
7:14 AM,-14.8,-18.4,84,30.35,10.0,NW,5.8,-,N/A,,Clear,310,2014-01-28 13:14:00
7:34 AM,-13.0,-16.6,84,30.35,10.0,NW,5.8,-,N/A,,Clear,320,2014-01-28 13:34:00
7:54 AM,-13.0,-16.6,84,30.34,10.0,WNW,5.8,-,N/A,,Clear,300,2014-01-28 13:54:00
8:14 AM,-11.2,-14.8,84,30.34,10.0,NW,5.8,-,N/A,,Clear,310,2014-01-28 14:14:00
8:34 AM,-9.4,-14.8,77,30.34,10.0,NW,5.8,-,N/A,,Clear,310,2014-01-28 14:34:00
8:54 AM,-9.4,-11.2,92,30.34,10.0,WNW,5.8,-,N/A,,Clear,300,2014-01-28 14:54:00
9:14 AM,-7.6,-11.2,84,30.33,10.0,WNW,8.1,-,N/A,,Clear,290,2014-01-28 15:14:00
9:34 AM,-7.6,-9.4,92,30.33,10.0,NW,8.1,-,N/A,,Clear,310,2014-01-28 15:34:00
9:54 AM,-5.8,-7.6,92,30.33,10.0,NW,11.5,16.1,N/A,,Clear,310,2014-01-28 15:54:00
10:14 AM,-4.0,-7.6,85,30.33,10.0,NW,10.4,-,N/A,,Clear,320,2014-01-28 16:14:00
10:34 AM,-2.2,-5.8,85,30.33,10.0,NNW,8.1,-,N/A,,Clear,330,2014-01-28 16:34:00
10:54 AM,-2.2,-5.8,85,30.33,10.0,NW,10.4,-,N/A,,Clear,320,2014-01-28 16:54:00
11:14 AM,-0.4,-4.0,85,30.32,10.0,NW,9.2,-,N/A,,Clear,320,2014-01-28 17:14:00
11:34 AM,-0.4,-2.2,92,30.32,10.0,NW,12.7,-,N/A,,Clear,320,2014-01-28 17:34:00
11:55 AM,-0.4,-2.2,92,30.31,10.0,NW,9.2,-,N/A,,Clear,320,2014-01-28 17:55:00
12:14 PM,1.4,-2.2,85,30.30,10.0,WNW,12.7,17.3,N/A,,Clear,300,2014-01-28 18:14:00
12:34 PM,1.4,-2.2,85,30.29,10.0,NNW,12.7,-,N/A,,Clear,330,2014-01-28 18:34:00
12:55 PM,1.4,-0.4,92,30.28,10.0,NW,12.7,16.1,N/A,,Clear,310,2014-01-28 18:55:00
1:14 PM,3.2,-0.4,85,30.27,10.0,NW,9.2,16.1,N/A,,Clear,320,2014-01-28 19:14:00
1:34 PM,3.2,-0.4,85,30.27,10.0,NW,10.4,17.3,N/A,,Clear,320,2014-01-28 19:34:00
1:54 PM,3.2,-0.4,85,30.26,10.0,NW,9.2,-,N/A,,Clear,310,2014-01-28 19:54:00
2:14 PM,3.2,1.4,92,30.25,10.0,NW,11.5,17.3,N/A,,Clear,320,2014-01-28 20:14:00
2:34 PM,3.2,1.4,92,30.23,10.0,WNW,9.2,-,N/A,,Clear,290,2014-01-28 20:34:00
2:54 PM,3.2,-0.4,85,30.23,10.0,WNW,10.4,-,N/A,,Clear,300,2014-01-28 20:54:00
3:14 PM,3.2,-0.4,85,30.23,10.0,NNW,12.7,16.1,N/A,,Clear,330,2014-01-28 21:14:00
3:34 PM,5.0,1.4,85,30.23,10.0,NW,11.5,16.1,N/A,,Clear,320,2014-01-28 21:34:00
3:54 PM,5.0,1.4,85,30.23,10.0,WNW,10.4,-,N/A,,Clear,300,2014-01-28 21:54:00
4:14 PM,5.0,1.4,85,30.23,10.0,NW,10.4,17.3,N/A,,Clear,320,2014-01-28 22:14:00
4:34 PM,3.2,-0.4,85,30.22,10.0,NW,8.1,-,N/A,,Clear,310,2014-01-28 22:34:00
4:54 PM,3.2,-0.4,85,30.21,10.0,WNW,9.2,-,N/A,,Clear,300,2014-01-28 22:54:00
5:14 PM,1.4,-2.2,85,30.20,10.0,WNW,9.2,-,N/A,,Clear,290,2014-01-28 23:14:00
5:34 PM,-0.4,-4.0,85,30.20,10.0,WNW,6.9,-,N/A,,Clear,290,2014-01-28 23:34:00
5:54 PM,-0.4,-4.0,85,30.20,10.0,WNW,6.9,-,N/A,,Clear,300,2014-01-28 23:54:00
6:14 PM,-0.4,-5.8,78,30.19,10.0,WNW,5.8,-,N/A,,Clear,290,2014-01-29 00:14:00
6:34 PM,-0.4,-5.8,78,30.19,10.0,WNW,4.6,-,N/A,,Clear,300,2014-01-29 00:34:00
6:54 PM,-2.2,-5.8,85,30.19,10.0,WNW,3.5,-,N/A,,Clear,290,2014-01-29 00:54:00
7:14 PM,-2.2,-5.8,85,30.19,10.0,WNW,3.5,-,N/A,,Clear,290,2014-01-29 01:14:00
7:34 PM,-2.2,-5.8,85,30.18,10.0,West,3.5,-,N/A,,Clear,270,2014-01-29 01:34:00
7:54 PM,-2.2,-5.8,85,30.17,10.0,West,4.6,-,N/A,,Clear,270,2014-01-29 01:54:00
8:14 PM,-2.2,-5.8,85,30.16,10.0,West,5.8,-,N/A,,Clear,280,2014-01-29 02:14:00
8:34 PM,-2.2,-5.8,85,30.14,10.0,West,5.8,-,N/A,,Clear,270,2014-01-29 02:34:00
8:54 PM,-2.2,-5.8,85,30.13,10.0,West,5.8,-,N/A,,Clear,280,2014-01-29 02:54:00
9:14 PM,-2.2,-5.8,85,30.13,10.0,West,4.6,-,N/A,,Clear,270,2014-01-29 03:14:00
9:34 PM,-4.0,-7.6,85,30.13,10.0,West,4.6,-,N/A,,Clear,270,2014-01-29 03:34:00
9:54 PM,-4.0,-7.6,85,30.12,10.0,West,3.5,-,N/A,,Clear,270,2014-01-29 03:54:00
10:14 PM,-5.8,-7.6,92,30.12,10.0,West,3.5,-,N/A,,Clear,260,2014-01-29 04:14:00
10:34 PM,-5.8,-9.4,84,30.11,10.0,West,4.6,-,N/A,,Clear,260,2014-01-29 04:34:00
10:54 PM,-5.8,-7.6,92,30.11,10.0,WSW,6.9,-,N/A,,Clear,250,2014-01-29 04:54:00
11:14 PM,-5.8,-9.4,84,30.10,10.0,WSW,8.1,-,N/A,,Clear,250,2014-01-29 05:14:00
11:34 PM,-5.8,-7.6,92,30.09,10.0,WSW,6.9,-,N/A,,Clear,250,2014-01-29 05:34:00
11:54 PM,-5.8,-7.6,92,30.09,10.0,WSW,6.9,-,N/A,,Clear,250,2014-01-29 05:54:00